Tracking 22879 objects as of 20-Apr-2021
HD Live streaming from Space Station
objects crossing your sky now

SL-8 DEB

Track SL-8 DEB now!
10-day predictions


NORAD ID: 21959
Int'l Code: 1991-009CH
Perigee: 1,501.6 km
Apogee: 1,709.4 km
Inclination: 74.0 °
Period: 118.2 minutes
Semi major axis: 7976 km
RCS: 0.0331 m2 (small)
Launch date: February 12, 1991
Source: Commonwealth of Independent States (former USSR) (CIS)
Launch site: PLESETSK MISSILE AND SPACE COMPLEX (PKMTR)

Note: This is SATELLITE DEBRIS
aabbcc
Your satellite tracking list
Your tracking list is empty




NASA's NSSDC Master Catalog

Two Line Element Set (TLE):
1 21959U 91009CH  21109.19046606  .00000004  00000-0  18128-3 0  9997
2 21959  73.9723  23.1892 0130242 231.0716 285.2199 12.18658482338742
Source of the keplerian elements: AFSPC